CDT,Max TemperatureF,Mean TemperatureF,Min TemperatureF,Max Dew PointF,MeanDew PointF,Min DewpointF,Max Humidity, Mean Humidity, Min Humidity, Max Sea Level PressureIn, Mean Sea Level PressureIn, Min Sea Level PressureIn, Max VisibilityMiles, Mean VisibilityMiles, Min VisibilityMiles, Max Wind SpeedMPH, Mean Wind SpeedMPH, Max Gust SpeedMPH,PrecipitationIn, CloudCover, Events, WindDirDegrees
2013-3-1,21,13,1,9,4,-6,72,60,50,30.38,30.34,30.27,10,10,10,14,7,21,0.00,3,Snow,34
2013-3-2,23,10,-2,12,0,-11,78,58,40,30.31,30.24,30.14,10,10,10,8,5,,0.00,0,,31
2013-3-3,26,10,-5,10,4,-11,79,65,43,30.14,30.09,30.04,10,10,10,15,4,,0.00,3,,52
2013-3-4,26,20,15,19,15,9,80,69,54,30.08,30.05,30.03,10,9,2,24,12,31,0.00,6,Snow,71
2013-3-5,26,22,19,19,16,10,86,76,68,30.24,30.14,30.04,10,6,0,20,13,29,0.04,8,Snow,51
2013-3-6,26,17,8,12,9,3,85,67,51,30.31,30.29,30.24,10,10,7,10,3,17,0.00,2,Snow,306
2013-3-7,26,12,-2,16,9,-9,86,72,55,30.37,30.33,30.30,10,10,10,12,5,,0.00,2,,48
2013-3-8,35,24,12,21,17,9,86,74,56,30.32,30.23,30.11,10,9,7,12,3,,0.00,2,,218
2013-3-9,32,28,24,27,25,19,86,84,80,30.11,29.87,29.73,10,3,0,13,5,16,0.47,7,Rain-Snow,55
2013-3-10,32,28,24,27,23,18,86,78,69,30.00,29.91,29.74,10,10,10,10,3,16,0.00,8,,2
2013-3-11,26,24,21,18,15,12,80,73,59,29.93,29.77,29.70,10,9,4,9,5,,0.00,8,Snow,356
2013-3-12,21,18,14,16,9,3,80,67,53,30.06,29.86,29.72,10,8,2,13,4,21,0.00,7,Snow,327
2013-3-13,33,18,3,9,4,-4,78,53,34,30.25,30.19,30.06,10,10,10,10,4,18,0.00,0,,293
2013-3-14,37,18,0,27,13,-8,85,67,47,30.18,30.06,29.92,10,10,10,13,3,16,0.00,3,,224
2013-3-15,33,25,17,25,13,7,79,66,50,30.00,29.96,29.90,10,8,1,15,7,22,0.06,6,Snow,44
2013-3-16,19,10,0,12,2,-9,86,63,46,30.18,30.03,29.96,10,7,1,16,5,25,0.02,5,Snow,311
2013-3-17,21,8,-5,14,-1,-15,77,64,49,30.23,30.12,29.89,10,10,3,13,5,20,0.00,4,Snow,67
2013-3-18,26,22,19,21,16,7,86,75,54,29.89,29.59,29.45,10,4,0,14,10,24,0.20,8,Snow,150
2013-3-19,24,17,10,12,3,-2,74,58,39,29.96,29.73,29.48,10,7,2,20,14,37,0.00,2,Snow,294
2013-3-20,19,12,5,1,-1,-6,72,56,46,30.06,30.00,29.95,10,10,3,15,8,24,0.00,3,Snow,309
2013-3-21,26,14,1,12,5,-2,85,66,46,30.04,30.00,29.97,10,10,10,9,3,,0.00,1,Snow,284
2013-3-22,30,18,6,19,12,1,85,69,58,30.05,30.02,29.99,10,10,10,8,4,,0.00,2,,54
2013-3-23,33,20,8,21,15,3,86,73,56,30.13,30.10,30.05,10,10,10,10,2,16,0.00,6,,75
2013-3-24,28,26,23,21,18,12,80,71,59,30.11,30.05,30.01,10,10,4,10,3,,0.00,6,Snow,40
2013-3-25,35,27,19,19,16,10,74,62,48,30.15,30.08,30.01,10,10,10,12,6,18,0.00,5,,1
2013-3-26,35,30,26,21,18,16,74,58,44,30.23,30.20,30.16,10,10,10,6,1,,0.00,8,,231
2013-3-27,39,30,21,18,16,12,74,51,38,30.28,30.26,30.24,10,10,10,10,2,,0.00,5,,100
2013-3-28,42,27,12,18,14,7,85,57,36,30.29,30.27,30.23,10,10,10,10,3,,0.00,0,,180
2013-3-29,46,32,17,27,19,10,80,55,36,30.25,30.17,30.03,10,10,10,13,3,17,0.00,2,,215
2013-3-30,53,42,30,37,29,18,87,65,35,30.02,29.82,29.72,10,6,0,10,2,18,0.42,4,Rain,285
2013-3-31,37,29,21,27,16,5,80,57,38,29.96,29.76,29.64,10,9,2,15,7,28,0.00,5,Snow,301